Location: Doux
(49.5045°N, 4.4321°E)
Time: 21:41:03
(UTC+00:00)

Meteor 1-28 Rocket - Pass Details

Date: 23 May 2024
Orbit: 474 x 489 km, 97.5° (Epoch: 14 June)

Event Time Altitude Azimuth Distance (km) Brightness Sun altitude
Exits shadow 02:00:27 - 157° (SSE) 1,875 5.7 -13.1°
Reaches altitude 10° 02:00:57 10° 157° (SSE) 1,657 5.5 -13.1°
Maximum altitude 02:04:29 67° 74° (ENE) 525 3.4 -12.8°
Drops below altitude 10° 02:08:02 10° 352° (N) 1,663 6.5 -12.4°
Sets 02:10:07 0° 349° (N) 2,545 7.4 -12.2°
